status,avgMeasuredTime,avgSpeed,extID,medianMeasuredTime,TIMESTAMP,vehicleCount,_id,REPORT_ID
OK,69,38,743,69,2014-08-01T07:55:00,0,20746467,193213
OK,69,38,743,69,2014-08-01T08:00:00,0,20746798,193213
OK,69,38,743,69,2014-08-01T08:05:00,0,20747247,193213
OK,69,38,743,69,2014-08-01T08:10:00,0,20747620,193213
OK,69,38,743,69,2014-08-01T08:15:00,0,20748069,193213
OK,69,38,743,69,2014-08-01T08:20:00,0,20748518,193213
OK,69,38,743,69,2014-08-01T08:25:00,0,20748967,193213
OK,69,38,743,69,2014-08-01T08:30:00,0,20749416,193213
OK,69,38,743,69,2014-08-01T08:35:00,0,20749865,193213
OK,69,38,743,69,2014-08-01T08:40:00,0,20750314,193213
OK,69,38,743,69,2014-08-01T08:45:00,0,20750763,193213
OK,69,38,743,69,2014-08-01T08:50:00,0,20751212,193213
OK,69,38,743,69,2014-08-01T08:55:00,0,20751661,193213
OK,71,37,743,71,2014-08-01T09:00:00,1,20752110,193213
OK,71,37,743,71,2014-08-01T09:05:00,1,20752559,193213
OK,71,37,743,71,2014-08-01T09:10:00,0,20753008,193213
OK,71,37,743,71,2014-08-01T09:15:00,0,20753457,193213
OK,71,37,743,71,2014-08-01T09:20:00,0,20753906,193213
OK,71,37,743,71,2014-08-01T09:25:00,0,20754355,193213
OK,71,37,743,71,2014-08-01T09:30:00,0,20754804,193213
OK,71,37,743,71,2014-08-01T09:35:00,0,20755253,193213
OK,71,37,743,71,2014-08-01T09:40:00,0,20755702,193213
OK,71,37,743,71,2014-08-01T09:45:00,0,20756151,193213
OK,71,37,743,71,2014-08-01T09:50:00,0,20756600,193213
OK,71,37,743,71,2014-08-01T09:55:00,0,20757049,193213
OK,71,37,743,71,2014-08-01T10:00:00,0,20757498,193213
OK,71,37,743,71,2014-08-01T10:05:00,0,20757947,193213
OK,71,37,743,71,2014-08-01T10:10:00,0,20758396,193213
OK,71,37,743,71,2014-08-01T10:15:00,0,20758845,193213
OK,71,37,743,71,2014-08-01T10:20:00,0,20759294,193213
OK,71,37,743,71,2014-08-01T10:25:00,0,20759743,193213
OK,71,37,743,71,2014-08-01T10:30:00,0,20760192,193213
OK,71,37,743,71,2014-08-01T10:35:00,0,20760641,193213
OK,203,13,743,203,2014-08-01T10:40:00,1,20761090,193213
OK,203,13,743,203,2014-08-01T10:45:00,1,20761539,193213
OK,203,13,743,203,2014-08-01T10:50:00,0,20761988,193213
OK,203,13,743,203,2014-08-01T10:55:00,0,20762437,193213
OK,203,13,743,203,2014-08-01T11:00:00,0,20762886,193213
OK,203,13,743,203,2014-08-01T11:05:00,0,20763335,193213
OK,203,13,743,203,2014-08-01T11:10:00,0,20763784,193213
OK,203,13,743,203,2014-08-01T11:15:00,0,20764233,193213
OK,203,13,743,203,2014-08-01T11:20:00,0,20764681,193213
OK,203,13,743,203,2014-08-01T11:25:00,0,20765130,193213
OK,203,13,743,203,2014-08-01T11:30:00,0,20765579,193213
OK,203,13,743,203,2014-08-01T11:35:00,0,20766028,193213
OK,203,13,743,203,2014-08-01T11:40:00,0,20766477,193213
OK,76,35,743,76,2014-08-01T11:45:00,1,20766926,193213
OK,76,35,743,76,2014-08-01T11:50:00,1,20767375,193213
OK,76,35,743,76,2014-08-01T11:55:00,0,20767824,193213
OK,76,35,743,76,2014-08-01T12:00:00,0,20768273,193213
OK,76,35,743,76,2014-08-01T12:05:00,0,20768722,193213
OK,76,35,743,76,2014-08-01T12:10:00,0,20769171,193213
OK,76,35,743,76,2014-08-01T12:15:00,0,20769620,193213
OK,76,35,743,76,2014-08-01T12:20:00,0,20770069,193213
OK,76,35,743,76,2014-08-01T12:25:00,0,20770518,193213
OK,76,35,743,76,2014-08-01T12:30:00,0,20770967,193213
OK,76,35,743,76,2014-08-01T12:35:00,0,20771416,193213
OK,76,35,743,76,2014-08-01T12:40:00,0,20771865,193213
OK,76,35,743,76,2014-08-01T12:45:00,0,20772314,193213
OK,76,35,743,76,2014-08-01T12:50:00,0,20772763,193213
OK,76,35,743,76,2014-08-01T12:55:00,0,20773212,193213
OK,28,95,743,28,2014-08-01T13:00:00,1,20773661,193213
OK,28,95,743,28,2014-08-01T13:05:00,1,20774110,193213
OK,171,15,743,171,2014-08-01T13:10:00,1,20774559,193213
OK,171,15,743,171,2014-08-01T13:15:00,1,20775008,193213
OK,171,15,743,171,2014-08-01T13:20:00,0,20775457,193213
OK,171,15,743,171,2014-08-01T13:25:00,0,20775906,193213
OK,171,15,743,171,2014-08-01T13:30:00,0,20776355,193213
OK,134,19,743,134,2014-08-01T13:35:00,1,20776804,193213
OK,134,19,743,134,2014-08-01T13:40:00,1,20777253,193213
OK,134,19,743,134,2014-08-01T13:45:00,0,20777702,193213
OK,134,19,743,134,2014-08-01T13:50:00,0,20778151,193213
OK,189,14,743,189,2014-08-01T13:55:00,1,20778600,193213
OK,189,14,743,189,2014-08-01T14:00:00,0,20779049,193213
OK,189,14,743,189,2014-08-01T14:05:00,0,20779498,193213
OK,189,14,743,189,2014-08-01T14:10:00,0,20779947,193213
OK,189,14,743,189,2014-08-01T14:15:00,0,20780396,193213
OK,189,14,743,189,2014-08-01T14:20:00,0,20780845,193213
OK,189,14,743,189,2014-08-01T14:25:00,0,20781294,193213
OK,189,14,743,189,2014-08-01T14:30:00,0,20781743,193213
OK,189,14,743,189,2014-08-01T14:35:00,0,20782192,193213
OK,213,12,743,213,2014-08-01T14:40:00,1,20782641,193213
OK,213,12,743,213,2014-08-01T14:45:00,1,20783090,193213
OK,213,12,743,213,2014-08-01T14:50:00,0,20783539,193213
OK,213,12,743,213,2014-08-01T14:55:00,0,20783988,193213
OK,213,12,743,213,2014-08-01T15:00:00,0,20784437,193213
OK,213,12,743,213,2014-08-01T15:05:00,0,20784886,193213
OK,213,12,743,213,2014-08-01T15:10:00,0,20785335,193213
OK,213,12,743,213,2014-08-01T15:15:00,0,20785784,193213
OK,213,12,743,213,2014-08-01T15:20:00,0,20786233,193213
OK,213,12,743,213,2014-08-01T15:25:00,0,20786682,193213
OK,213,12,743,213,2014-08-01T15:30:00,0,20787131,193213
OK,213,12,743,213,2014-08-01T15:35:00,0,20787580,193213
OK,213,12,743,213,2014-08-01T15:40:00,0,20788029,193213
OK,146,18,743,146,2014-08-01T15:45:00,1,20788478,193213
OK,146,18,743,146,2014-08-01T15:50:00,0,20788927,193213
OK,146,18,743,146,2014-08-01T15:55:00,0,20789376,193213
OK,146,18,743,146,2014-08-01T16:00:00,0,20789825,193213
OK,146,18,743,146,2014-08-01T16:05:00,0,20790274,193213
OK,146,18,743,146,2014-08-01T16:10:00,0,20790723,193213
OK,146,18,743,146,2014-08-01T16:15:00,0,20791172,193213
OK,146,18,743,146,2014-08-01T16:20:00,0,20791621,193213
OK,146,18,743,146,2014-08-01T16:25:00,0,20792070,193213
OK,146,18,743,146,2014-08-01T16:30:00,0,20792519,193213
OK,146,18,743,146,2014-08-01T16:35:00,0,20792968,193213
OK,146,18,743,146,2014-08-01T16:40:00,0,20793417,193213
OK,75,35,743,75,2014-08-01T16:45:00,0,20793866,193213
OK,75,35,743,75,2014-08-01T16:50:00,0,20794315,193213
OK,75,35,743,75,2014-08-01T16:55:00,0,20794764,193213
OK,75,35,743,75,2014-08-01T17:00:00,0,20795213,193213
OK,75,35,743,75,2014-08-01T17:05:00,0,20795662,193213
OK,75,35,743,75,2014-08-01T17:10:00,0,20796111,193213
OK,75,35,743,75,2014-08-01T17:15:00,0,20796560,193213
OK,75,35,743,75,2014-08-01T17:20:00,0,20797009,193213
OK,75,35,743,75,2014-08-01T17:25:00,0,20797458,193213
OK,75,35,743,75,2014-08-01T17:30:00,0,20797907,193213
OK,75,35,743,75,2014-08-01T17:35:00,0,20798356,193213
OK,39,68,743,39,2014-08-01T17:40:00,1,20798805,193213
OK,39,68,743,39,2014-08-01T17:45:00,1,20799254,193213
OK,39,68,743,39,2014-08-01T17:50:00,0,20799703,193213
OK,39,68,743,39,2014-08-01T17:55:00,0,20800152,193213
OK,39,68,743,39,2014-08-01T18:00:00,0,20800601,193213
OK,39,68,743,39,2014-08-01T18:05:00,0,20801050,193213
OK,39,68,743,39,2014-08-01T18:10:00,0,20801499,193213
OK,39,68,743,39,2014-08-01T18:15:00,0,20801948,193213
OK,39,68,743,39,2014-08-01T18:20:00,0,20802397,193213
OK,39,68,743,39,2014-08-01T18:25:00,0,20802846,193213
OK,39,68,743,39,2014-08-01T18:30:00,0,20803295,193213
OK,39,68,743,39,2014-08-01T18:35:00,0,20803744,193213
OK,39,68,743,39,2014-08-01T18:40:00,0,20804193,193213
OK,39,68,743,39,2014-08-01T18:45:00,0,20804642,193213
OK,39,68,743,39,2014-08-01T18:50:00,0,20805091,193213
OK,39,68,743,39,2014-08-01T18:55:00,0,20805540,193213
OK,39,68,743,39,2014-08-01T19:00:00,0,20805989,193213
OK,39,68,743,39,2014-08-01T19:05:00,0,20806438,193213
OK,39,68,743,39,2014-08-01T19:10:00,0,20806887,193213
OK,39,68,743,39,2014-08-01T19:15:00,0,20807336,193213
OK,39,68,743,39,2014-08-01T19:20:00,0,20807785,193213
OK,39,68,743,39,2014-08-01T19:25:00,0,20808234,193213
OK,39,68,743,39,2014-08-01T19:30:00,0,20808683,193213
OK,39,68,743,39,2014-08-01T19:35:00,0,20809132,193213
OK,39,68,743,39,2014-08-01T19:40:00,0,20809581,193213
OK,39,68,743,39,2014-08-01T19:45:00,0,20810030,193213
OK,39,68,743,39,2014-08-01T19:50:00,0,20810479,193213
OK,39,68,743,39,2014-08-01T19:55:00,0,20810928,193213
OK,39,68,743,39,2014-08-01T20:20:00,0,20812165,193213
OK,39,68,743,39,2014-08-01T21:20:00,0,20814714,193213
OK,39,68,743,39,2014-08-01T21:30:00,0,20815219,193213
OK,39,68,743,39,2014-08-01T21:40:00,0,20815676,193213
OK,39,68,743,39,2014-08-01T21:55:00,0,20816389,193213
OK,39,68,743,39,2014-08-01T22:00:00,0,20816657,193213
OK,39,68,743,39,2014-08-01T22:05:00,0,20817106,193213
OK,39,68,743,39,2014-08-01T22:10:00,0,20817428,193213
OK,39,68,743,39,2014-08-01T22:15:00,0,20817857,193213
OK,39,68,743,39,2014-08-01T22:20:00,0,20818147,193213
OK,39,68,743,39,2014-08-01T22:25:00,0,20818463,193213
OK,39,68,743,39,2014-08-01T22:30:00,0,20818797,193213
OK,39,68,743,39,2014-08-01T22:40:00,0,20819281,193213
OK,39,68,743,39,2014-08-01T23:40:00,0,20821982,193213
OK,39,68,743,39,2014-08-01T23:45:00,0,20822205,193213
OK,39,68,743,39,2014-08-01T23:50:00,0,20822472,193213
OK,39,68,743,39,2014-08-01T23:55:00,0,20822798,193213
OK,39,68,743,39,2014-08-02T00:00:00,0,20823096,193213
OK,39,68,743,39,2014-08-02T00:05:00,0,20823545,193213
OK,39,68,743,39,2014-08-02T00:10:00,0,20823994,193213
OK,39,68,743,39,2014-08-02T00:15:00,0,20824443,193213
OK,39,68,743,39,2014-08-02T00:20:00,0,20824892,193213
OK,39,68,743,39,2014-08-02T00:25:00,0,20825341,193213
OK,39,68,743,39,2014-08-02T00:30:00,0,20825790,193213
OK,39,68,743,39,2014-08-02T00:35:00,0,20826239,193213
OK,39,68,743,39,2014-08-02T00:40:00,0,20826688,193213
OK,39,68,743,39,2014-08-02T00:45:00,0,20827137,193213
OK,39,68,743,39,2014-08-02T00:50:00,0,20827586,193213
OK,39,68,743,39,2014-08-02T00:55:00,0,20828035,193213
OK,39,68,743,39,2014-08-02T01:00:00,0,20828484,193213
OK,39,68,743,39,2014-08-02T01:05:00,0,20828933,193213
OK,39,68,743,39,2014-08-02T01:10:00,0,20829382,193213
OK,39,68,743,39,2014-08-02T01:15:00,0,20829831,193213
OK,39,68,743,39,2014-08-02T01:20:00,0,20830280,193213
OK,39,68,743,39,2014-08-02T01:25:00,0,20830729,193213
OK,39,68,743,39,2014-08-02T01:30:00,0,20831178,193213
OK,39,68,743,39,2014-08-02T01:35:00,0,20831627,193213
OK,39,68,743,39,2014-08-02T01:40:00,0,20832076,193213
OK,39,68,743,39,2014-08-02T01:45:00,0,20832525,193213
OK,39,68,743,39,2014-08-02T01:50:00,0,20832974,193213
OK,39,68,743,39,2014-08-02T01:55:00,0,20833423,193213
OK,39,68,743,39,2014-08-02T02:00:00,0,20833872,193213
OK,39,68,743,39,2014-08-02T02:05:00,0,20834321,193213
OK,39,68,743,39,2014-08-02T02:10:00,0,20834770,193213
OK,39,68,743,39,2014-08-02T02:15:00,0,20835219,193213
OK,39,68,743,39,2014-08-02T02:20:00,0,20835668,193213
OK,39,68,743,39,2014-08-02T02:25:00,0,20836117,193213
OK,39,68,743,39,2014-08-02T02:30:00,0,20836566,193213
OK,39,68,743,39,2014-08-02T02:35:00,0,20837015,193213
OK,39,68,743,39,2014-08-02T02:40:00,0,20837464,193213
OK,39,68,743,39,2014-08-02T02:45:00,0,20837913,193213
OK,39,68,743,39,2014-08-02T02:50:00,0,20838362,193213
OK,39,68,743,39,2014-08-02T02:55:00,0,20838811,193213
OK,39,68,743,39,2014-08-02T03:00:00,0,20839260,193213
OK,39,68,743,39,2014-08-02T03:05:00,0,20839709,193213
OK,39,68,743,39,2014-08-02T03:10:00,0,20840158,193213
OK,39,68,743,39,2014-08-02T03:15:00,0,20840607,193213
OK,39,68,743,39,2014-08-02T03:20:00,0,20841056,193213
OK,39,68,743,39,2014-08-02T03:25:00,0,20841505,193213
OK,39,68,743,39,2014-08-02T03:30:00,0,20841954,193213
OK,39,68,743,39,2014-08-02T03:35:00,0,20842403,193213
OK,39,68,743,39,2014-08-02T03:40:00,0,20842852,193213
OK,39,68,743,39,2014-08-02T03:45:00,0,20843301,193213
OK,39,68,743,39,2014-08-02T03:50:00,0,20843750,193213
OK,39,68,743,39,2014-08-02T03:55:00,0,20844199,193213
OK,39,68,743,39,2014-08-02T04:05:00,0,20844779,193213
OK,39,68,743,39,2014-08-02T04:10:00,0,20845109,193213
OK,39,68,743,39,2014-08-02T04:15:00,0,20845289,193213
OK,39,68,743,39,2014-08-02T04:20:00,0,20845645,193213
OK,39,68,743,39,2014-08-02T04:30:00,0,20846201,193213
OK,39,68,743,39,2014-08-02T04:35:00,0,20846568,193213
OK,39,68,743,39,2014-08-02T04:40:00,0,20846951,193213
OK,39,68,743,39,2014-08-02T04:45:00,0,20847210,193213
OK,39,68,743,39,2014-08-02T04:50:00,0,20847576,193213
OK,39,68,743,39,2014-08-02T05:00:00,0,20848293,193213
OK,39,68,743,39,2014-08-02T05:10:00,0,20848810,193213
OK,39,68,743,39,2014-08-02T05:15:00,0,20849003,193213
OK,39,68,743,39,2014-08-02T05:20:00,0,20849347,193213
OK,39,68,743,39,2014-08-02T05:35:00,0,20850144,193213
OK,39,68,743,39,2014-08-02T05:40:00,0,20850437,193213
OK,39,68,743,39,2014-08-02T05:45:00,0,20850738,193213
OK,39,68,743,39,2014-08-02T05:50:00,0,20851096,193213
OK,39,68,743,39,2014-08-02T05:55:00,0,20851350,193213
OK,39,68,743,39,2014-08-02T06:00:00,0,20851653,193213
OK,39,68,743,39,2014-08-02T06:05:00,0,20852102,193213
OK,39,68,743,39,2014-08-02T06:10:00,0,20852551,193213
OK,39,68,743,39,2014-08-02T06:15:00,0,20853000,193213
OK,39,68,743,39,2014-08-02T06:20:00,0,20853449,193213
OK,39,68,743,39,2014-08-02T06:25:00,0,20853898,193213
OK,39,68,743,39,2014-08-02T06:30:00,0,20854347,193213
OK,39,68,743,39,2014-08-02T06:35:00,0,20854796,193213
OK,39,68,743,39,2014-08-02T06:40:00,0,20855245,193213
OK,39,68,743,39,2014-08-02T06:45:00,0,20855694,193213
OK,39,68,743,39,2014-08-02T06:50:00,0,20856143,193213
OK,39,68,743,39,2014-08-02T06:55:00,0,20856592,193213
OK,39,68,743,39,2014-08-02T07:00:00,0,20857041,193213
OK,39,68,743,39,2014-08-02T07:05:00,0,20857490,193213
OK,39,68,743,39,2014-08-02T07:10:00,0,20857939,193213
OK,39,68,743,39,2014-08-02T07:15:00,0,20858388,193213
OK,39,68,743,39,2014-08-02T07:20:00,0,20858837,193213
OK,39,68,743,39,2014-08-02T07:25:00,0,20859286,193213
OK,39,68,743,39,2014-08-02T07:30:00,0,20859735,193213
OK,39,68,743,39,2014-08-02T07:35:00,0,20860184,193213
OK,39,68,743,39,2014-08-02T07:40:00,0,20860633,193213
OK,39,68,743,39,2014-08-02T07:45:00,0,20861082,193213
OK,39,68,743,39,2014-08-02T07:50:00,0,20861531,193213
OK,39,68,743,39,2014-08-02T07:55:00,0,20861980,193213
OK,39,68,743,39,2014-08-02T08:00:00,0,20862429,193213
OK,39,68,743,39,2014-08-02T08:05:00,0,20862878,193213
OK,39,68,743,39,2014-08-02T08:10:00,0,20863327,193213
OK,39,68,743,39,2014-08-02T08:15:00,0,20863776,193213
OK,39,68,743,39,2014-08-02T08:20:00,0,20864225,193213
OK,39,68,743,39,2014-08-02T08:25:00,0,20864674,193213
OK,39,68,743,39,2014-08-02T08:30:00,0,20865123,193213
OK,39,68,743,39,2014-08-02T08:35:00,0,20865572,193213
OK,39,68,743,39,2014-08-02T08:40:00,0,20866021,193213
OK,39,68,743,39,2014-08-02T08:45:00,0,20866470,193213
OK,39,68,743,39,2014-08-02T08:50:00,0,20866919,193213
OK,39,68,743,39,2014-08-02T08:55:00,0,20867368,193213
OK,39,68,743,39,2014-08-02T09:00:00,0,20867817,193213
OK,39,68,743,39,2014-08-02T09:05:00,0,20868266,193213
OK,39,68,743,39,2014-08-02T09:10:00,0,20868715,193213
OK,39,68,743,39,2014-08-02T09:15:00,0,20869164,193213
OK,39,68,743,39,2014-08-02T09:20:00,0,20869613,193213
OK,39,68,743,39,2014-08-02T09:25:00,0,20870062,193213
OK,39,68,743,39,2014-08-02T09:30:00,0,20870511,193213
OK,39,68,743,39,2014-08-02T09:35:00,0,20870960,193213
OK,39,68,743,39,2014-08-02T09:40:00,0,20871409,193213
OK,39,68,743,39,2014-08-02T09:45:00,0,20871858,193213
OK,39,68,743,39,2014-08-02T09:50:00,0,20872307,193213
OK,39,68,743,39,2014-08-02T09:55:00,0,20872756,193213
OK,39,68,743,39,2014-08-02T10:00:00,0,20873205,193213
OK,39,68,743,39,2014-08-02T10:05:00,0,20873654,193213
OK,39,68,743,39,2014-08-02T10:10:00,0,20874103,193213
OK,39,68,743,39,2014-08-02T10:15:00,0,20874552,193213
OK,39,68,743,39,2014-08-02T10:20:00,0,20875001,193213
OK,39,68,743,39,2014-08-02T10:25:00,0,20875450,193213
OK,39,68,743,39,2014-08-02T10:30:00,0,20875899,193213
OK,39,68,743,39,2014-08-02T10:35:00,0,20876348,193213
OK,144,18,743,144,2014-08-02T10:40:00,2,20876797,193213
OK,72,37,743,72,2014-08-02T10:45:00,1,20877246,193213
OK,72,37,743,72,2014-08-02T10:50:00,0,20877695,193213
OK,72,37,743,72,2014-08-02T10:55:00,0,20878144,193213
OK,72,37,743,72,2014-08-02T11:00:00,0,20878593,193213
OK,72,37,743,72,2014-08-02T11:05:00,0,20879042,193213
OK,72,37,743,72,2014-08-02T11:10:00,0,20879491,193213
OK,134,19,743,134,2014-08-02T11:15:00,1,20879940,193213
OK,134,19,743,134,2014-08-02T11:20:00,0,20880389,193213
OK,134,19,743,134,2014-08-02T11:25:00,0,20880838,193213
OK,134,19,743,134,2014-08-02T11:30:00,0,20881287,193213
OK,134,19,743,134,2014-08-02T11:35:00,0,20881736,193213
OK,134,19,743,134,2014-08-02T11:40:00,0,20882185,193213
OK,134,19,743,134,2014-08-02T11:45:00,0,20882634,193213
OK,134,19,743,134,2014-08-02T11:50:00,0,20883083,193213
OK,134,19,743,134,2014-08-02T11:55:00,0,20883532,193213
OK,134,19,743,134,2014-08-02T12:00:00,0,20883981,193213
OK,134,19,743,134,2014-08-02T12:05:00,0,20884430,193213
OK,134,19,743,134,2014-08-02T12:10:00,0,20884879,193213
OK,134,19,743,134,2014-08-02T12:15:00,0,20885328,193213
OK,134,19,743,134,2014-08-02T12:20:00,0,20885777,193213
OK,134,19,743,134,2014-08-02T12:25:00,0,20886226,193213
OK,134,19,743,134,2014-08-02T12:30:00,0,20886675,193213
OK,134,19,743,134,2014-08-02T12:35:00,0,20887124,193213
OK,134,19,743,134,2014-08-02T12:40:00,0,20887573,193213
OK,134,19,743,134,2014-08-02T12:45:00,0,20888022,193213
OK,134,19,743,134,2014-08-02T12:50:00,0,20888471,193213
OK,134,19,743,134,2014-08-02T12:55:00,0,20888920,193213
OK,134,19,743,134,2014-08-02T13:00:00,0,20889369,193213
OK,134,19,743,134,2014-08-02T13:05:00,0,20889818,193213
OK,134,19,743,134,2014-08-02T13:10:00,0,20890267,193213
OK,134,19,743,134,2014-08-02T13:15:00,0,20890716,193213
OK,134,19,743,134,2014-08-02T13:20:00,0,20891165,193213
OK,134,19,743,134,2014-08-02T13:25:00,0,20891614,193213
OK,134,19,743,134,2014-08-02T13:30:00,0,20892063,193213
OK,134,19,743,134,2014-08-02T13:35:00,0,20892512,193213
OK,134,19,743,134,2014-08-02T13:40:00,0,20892961,193213
OK,134,19,743,134,2014-08-02T13:45:00,0,20893410,193213
OK,134,19,743,134,2014-08-02T13:50:00,0,20893859,193213
OK,134,19,743,134,2014-08-02T13:55:00,0,20894308,193213
OK,134,19,743,134,2014-08-02T14:00:00,0,20894757,193213
OK,134,19,743,134,2014-08-02T14:05:00,0,20895206,193213
OK,134,19,743,134,2014-08-02T14:10:00,0,20895655,193213
OK,134,19,743,134,2014-08-02T14:15:00,0,20896104,193213
OK,134,19,743,134,2014-08-02T14:20:00,0,20896553,193213
OK,134,19,743,134,2014-08-02T14:25:00,0,20897002,193213
OK,63,42,743,63,2014-08-02T14:30:00,1,20897451,193213
OK,63,42,743,63,2014-08-02T14:35:00,0,20897900,193213
OK,63,42,743,63,2014-08-02T14:40:00,0,20898349,193213
OK,63,42,743,63,2014-08-02T14:45:00,0,20898798,193213
OK,63,42,743,63,2014-08-02T14:50:00,0,20899247,193213
OK,63,42,743,63,2014-08-02T14:55:00,0,20899696,193213
OK,63,42,743,63,2014-08-02T15:00:00,0,20900145,193213
OK,63,42,743,63,2014-08-02T15:05:00,0,20900594,193213
OK,63,42,743,63,2014-08-02T15:10:00,0,20901043,193213
OK,63,42,743,63,2014-08-02T15:15:00,0,20901492,193213
OK,63,42,743,63,2014-08-02T15:20:00,0,20901941,193213
OK,63,42,743,63,2014-08-02T15:25:00,0,20902390,193213
OK,63,42,743,63,2014-08-02T15:30:00,0,20902839,193213
OK,63,42,743,63,2014-08-02T15:35:00,0,20903288,193213
OK,63,42,743,63,2014-08-02T15:40:00,0,20903737,193213
OK,63,42,743,63,2014-08-02T15:45:00,0,20904186,193213
OK,63,42,743,63,2014-08-02T15:50:00,0,20904635,193213
OK,63,42,743,63,2014-08-02T15:55:00,0,20905084,193213
OK,63,42,743,63,2014-08-02T16:00:00,0,20905533,193213
OK,63,42,743,63,2014-08-02T16:05:00,0,20905982,193213
OK,63,42,743,63,2014-08-02T16:10:00,0,20906431,193213
OK,63,42,743,63,2014-08-02T16:15:00,0,20906880,193213
OK,63,42,743,63,2014-08-02T16:20:00,0,20907329,193213
OK,63,42,743,63,2014-08-02T16:25:00,0,20907778,193213
OK,63,42,743,63,2014-08-02T16:30:00,0,20908227,193213
OK,63,42,743,63,2014-08-02T16:35:00,0,20908676,193213
OK,63,42,743,63,2014-08-02T16:40:00,0,20909125,193213
OK,63,42,743,63,2014-08-02T16:45:00,0,20909574,193213
OK,63,42,743,63,2014-08-02T16:50:00,0,20910023,193213
OK,40,66,743,40,2014-08-02T16:55:00,1,20910472,193213
OK,40,66,743,40,2014-08-02T17:00:00,1,20910921,193213
OK,40,66,743,40,2014-08-02T17:05:00,0,20911370,193213
OK,40,66,743,40,2014-08-02T17:10:00,0,20911819,193213
OK,40,66,743,40,2014-08-02T17:15:00,0,20912268,193213
OK,40,66,743,40,2014-08-02T17:20:00,0,20912717,193213
OK,40,66,743,40,2014-08-02T17:25:00,0,20913166,193213
OK,40,66,743,40,2014-08-02T17:30:00,0,20913615,193213
OK,40,66,743,40,2014-08-02T17:35:00,0,20914064,193213
OK,40,66,743,40,2014-08-02T17:40:00,0,20914513,193213
OK,40,66,743,40,2014-08-02T17:45:00,0,20914962,193213
OK,40,66,743,40,2014-08-02T17:50:00,0,20915411,193213
OK,40,66,743,40,2014-08-02T17:55:00,0,20915860,193213
OK,40,66,743,40,2014-08-02T18:00:00,0,20916309,193213
OK,40,66,743,40,2014-08-02T18:05:00,0,20916758,193213
OK,40,66,743,40,2014-08-02T18:10:00,0,20917207,193213
OK,40,66,743,40,2014-08-02T18:15:00,0,20917656,193213
OK,40,66,743,40,2014-08-02T18:20:00,0,20918105,193213
OK,40,66,743,40,2014-08-02T18:25:00,0,20918554,193213
OK,40,66,743,40,2014-08-02T18:30:00,0,20919003,193213
OK,40,66,743,40,2014-08-02T18:35:00,0,20919452,193213
OK,40,66,743,40,2014-08-02T18:40:00,0,20919901,193213
OK,40,66,743,40,2014-08-02T18:45:00,0,20920350,193213
OK,40,66,743,40,2014-08-02T18:50:00,0,20920799,193213
OK,40,66,743,40,2014-08-02T18:55:00,0,20921248,193213
OK,40,66,743,40,2014-08-02T19:00:00,0,20921697,193213
OK,40,66,743,40,2014-08-02T19:05:00,0,20922146,193213
OK,40,66,743,40,2014-08-02T19:10:00,0,20922595,193213
OK,40,66,743,40,2014-08-02T19:15:00,0,20923044,193213
OK,40,66,743,40,2014-08-02T19:20:00,0,20923493,193213
OK,40,66,743,40,2014-08-02T19:25:00,0,20923942,193213
OK,40,66,743,40,2014-08-02T19:30:00,0,20924391,193213
OK,40,66,743,40,2014-08-02T19:35:00,0,20924840,193213
OK,40,66,743,40,2014-08-02T19:40:00,0,20925289,193213
OK,40,66,743,40,2014-08-02T19:45:00,0,20925738,193213
OK,40,66,743,40,2014-08-02T19:50:00,0,20926187,193213
OK,40,66,743,40,2014-08-02T19:55:00,0,20926636,193213
OK,40,66,743,40,2014-08-02T20:00:00,0,20927085,193213
OK,40,66,743,40,2014-08-02T20:05:00,0,20927534,193213
OK,40,66,743,40,2014-08-02T20:10:00,0,20927983,193213
OK,40,66,743,40,2014-08-02T20:15:00,0,20928432,193213
OK,40,66,743,40,2014-08-02T20:20:00,0,20928881,193213
OK,40,66,743,40,2014-08-02T20:25:00,0,20929330,193213
OK,40,66,743,40,2014-08-02T20:30:00,0,20929779,193213
OK,40,66,743,40,2014-08-02T20:35:00,0,20930228,193213
OK,40,66,743,40,2014-08-02T20:40:00,0,20930677,193213
OK,40,66,743,40,2014-08-02T20:45:00,0,20931126,193213
OK,40,66,743,40,2014-08-02T20:50:00,0,20931575,193213
OK,40,66,743,40,2014-08-02T20:55:00,0,20932024,193213
OK,40,66,743,40,2014-08-02T21:00:00,0,20932473,193213
OK,40,66,743,40,2014-08-02T21:05:00,0,20932922,193213
OK,40,66,743,40,2014-08-02T21:10:00,0,20933371,193213
OK,40,66,743,40,2014-08-02T21:15:00,0,20933820,193213
OK,40,66,743,40,2014-08-02T21:20:00,0,20934269,193213
OK,40,66,743,40,2014-08-02T21:25:00,0,20934718,193213
OK,40,66,743,40,2014-08-02T21:30:00,0,20935167,193213
OK,40,66,743,40,2014-08-02T21:35:00,0,20935616,193213
OK,40,66,743,40,2014-08-02T21:40:00,0,20936065,193213
OK,40,66,743,40,2014-08-02T21:45:00,0,20936514,193213
OK,40,66,743,40,2014-08-02T21:50:00,0,20936963,193213
OK,40,66,743,40,2014-08-02T21:55:00,0,20937412,193213
OK,40,66,743,40,2014-08-02T22:00:00,0,20937861,193213
OK,40,66,743,40,2014-08-02T22:05:00,0,20938310,193213
OK,40,66,743,40,2014-08-02T22:10:00,0,20938759,193213
OK,40,66,743,40,2014-08-02T22:15:00,0,20939208,193213
OK,40,66,743,40,2014-08-02T22:20:00,0,20939657,193213
OK,40,66,743,40,2014-08-02T22:25:00,0,20940106,193213
OK,40,66,743,40,2014-08-02T22:30:00,0,20940555,193213
OK,40,66,743,40,2014-08-02T22:35:00,0,20941004,193213
OK,40,66,743,40,2014-08-02T22:40:00,0,20941453,193213
OK,40,66,743,40,2014-08-02T22:45:00,0,20941902,193213
OK,40,66,743,40,2014-08-02T22:50:00,0,20942351,193213